Location: La Bilong�re
(48.1297°N, 1.4584°W)
Time: 19:55:02
(UTC+00:00)

Cosmos 1378 - Pass Details

Date: 03 March 2021
Orbit: 489 x 501 km, 82.5° (Epoch: 14 April)

Event Time Altitude Azimuth Distance (km) Brightness Sun altitude
Rises 19:59:18 0° 352° (N) 2,604 7.1 -21.6°
Reaches altitude 10° 20:01:27 10° 355° (N) 1,713 6.1 -22.0°
Enters shadow 20:04:03 41° 9° (N) 730 3.9 -22.4°
